Location: Pace/Milton
(30.6162°N, 87.1503°W)
Time: 11:11:36
(UTC-06:00)

Envisat - Pass Details

Date: 13 December 2021
Orbit: 764 x 766 km, 98.2° (Epoch: 23 January)

Event Time Altitude Azimuth Distance (km) Brightness Sun altitude
Rises 05:41:11 0° 354° (N) 3,233 6.0 -11.9°
Reaches altitude 10° 05:43:58 10° 339° (NNW) 2,303 5.1 -11.3°
Maximum altitude 05:47:44 21° 291° (WNW) 1,649 4.1 -10.6°
Drops below altitude 10° 05:51:29 10° 242° (WSW) 2,294 5.1 -9.8°
Sets 05:54:16 0° 227° (SW) 3,216 6.0 -9.3°
